Torna al catalogo

STARLINK-34288

AttivoComunicazioniVLEO
NORAD 64673·PAYLOAD·🇺🇸 United States

Lanciato Jun 28, 2025 da Cape Canaveral Space Force Station

Loading…

Prossimi Passaggi (prossime 24 ore)

TLE

AggiornatoSource: CelesTrak SupGP

Epoca: Sep 15, 2026, 03:36 UTC

1 64673C 25139K   26258.15048611  .00048348  00000+0  14283-2 0  2589
2 64673  53.1588 322.7083 0001256  91.7640 213.9883 15.34369328    13

Traccia STARLINK-34288 in tempo reale con AllMySat

Download on the App Store